Preview of NWS' New Version of Forecast
This preview is not operational and should not be used for support decisions.

Regional Weather Roundup (RWR)

Issued by National Weather Service (NWS)

                            
000
ASUS42 KTBW 201917
RWRFL 
FLORIDA REGIONAL WEATHER ROUNDUP
NATIONAL WEATHER SERVICE TAMPA BAY RUSKIN FL
300 PM EDT FRI SEP 20 2019

NOTE: "FAIR" INDICATES FEW OR NO CLOUDS BELOW 12,000 FEET WITH NO
SIGNIFICANT WEATHER AND/OR OBSTRUCTIONS TO VISIBILITY.

FLZ001>010-012>015-112-114-115-202000-
PANHANDLE FLORIDA
  
CITY           SKY/WX    TMP DP  RH WIND       PRES   REMARKS
PENSACOLA      FAIR      88  66  48 SE18      30.13F                  
PENSACOLA NAS  FAIR      87  68  52 SE20G25   30.13F                  
MILTON NAS     FAIR      89  61  38 E9G16     30.14F                  
CRESTVIEW      FAIR      88  61  40 VRB6      30.15F                  
DUKE FIELD     FAIR      88  61  39 E7        30.14F                  
VALPARAISO     FAIR      88  62  42 SE13      30.13F                  
MARY ESTHER    MOSUNNY   85  67  53 SE10      30.13F                  
PANAMA CITY    FAIR      89  62  40 E12G17    30.13F                  
TYNDALL AFB    PTSUNNY   87  65  46 E9        30.12F                  
APALACHICOLA   FAIR      85  67  54 E14G23    30.14F                  

STATION/POSITION SKY/WX   TEMP    WIND        PRES    WAVE   SWELL
                          AIR SEA DIR/SP/G            HT/PER HT/PER
                          (F)     (DEG/KT/KT) (MB)    (FT/S) (FT/S)
30.1N   87.6W              80 85   90/ 17/ 21 1020.5F   7/ 8   2/14
29.2N   88.2W              82      90/ 19/ 23 1019.3F   7/ 8
28.8N   86.0W                 85   80/ 21/ 27 1018.9
PANAMA CITY BEAC           84 84   60/  8/ 12 1021.2F
TOWER C                    79      80/ 19/ 21 1020.6F
28.5N   84.5W              81      70/ 17/ 25 1019.5

$$
FLZ011-016>038-118-127-128-134-139-239-202000-
NORTH FLORIDA
  
CITY           SKY/WX    TMP DP  RH WIND       PRES   REMARKS
MARIANNA       FAIR      88  63  43 E14       30.15F                  
TALLAHASSEE    PTSUNNY   88  64  44 E18G24    30.14F                  
PERRY          FAIR      88  66  48 E12G17    30.14F                  
LIVE OAK       MOSUNNY   88  63  42 NE14      30.14F                  
CROSS CITY       N/A     88  66  48 NE16G23   30.13F                  
LAKE CITY      FAIR      86  61  42 E8G21     30.16F                  
GAINESVILLE    FAIR      86  61  42 NE14G24   30.16F                  
WILLISTON      CLOUDY    83  64  52 E8G17     30.13F                  
PALATKA        LGT RAIN  81  66  61 E10G23    30.16S                  
MAYPORT NAS    FAIR      85  65  51 E14       30.17F                  
JACKSONVILLE   FAIR      86  64  47 E17       30.17F                  
JAX NAS        FAIR      86  65  49 E18G24    30.17F                  
JAX CECIL      MOSUNNY   88  61  40 E12G23    30.17F                  
FERNANDINA BEA CLOUDY    83  69  61 E14       30.18F                  
ST AUGUSTINE   FAIR      82  32  16 E16       30.17F                  
PALM COAST     PTSUNNY   86  66  51 E20G29    30.15F                  

STATION/POSITION SKY/WX   TEMP    WIND        PRES    WAVE   SWELL
                          AIR SEA DIR/SP/G            HT/PER HT/PER
                          (F)     (DEG/KT/KT) (MB)    (FT/S) (FT/S)
SHELL POINT      NOT AVBL
KEATON BEACH               85      50/  9/ 14 1020.2F
CEDAR KEY                  82      90/ 17/ 19 1020.4F
FERNANDINA                 89 81   70/  7/ 13 1023.1
30.7N   81.3W                 82                N/A     5/13   3/13
MAYPORT                    82 81   80/ 11/ 15 1022.5
31.4N   80.9W              77 81   50/ 19/ 23 1022.3F   6/ 6   3/14
ST AUGUSTINE               81 82   80/ 16/ 18 1021.5F

$$
FLZ040-043>046-052-053-057-058-063-144-202000-
INTERIOR CENTRAL FLORIDA
  
CITY           SKY/WX    TMP DP  RH WIND       PRES   REMARKS
OCALA          PTSUNNY   84  66  54 E12G17    30.13F                  
LEESBURG       CLOUDY    79  66  64 E16G30    30.15S                  
SANFORD        FAIR      85  67  54 NE18G24   30.13F                  
ORLANDO EXEC   PTSUNNY   82  68  62 E18G25    30.12F                  
ORLANDO INTL   PTSUNNY   83  65  54 E17       30.11S                  
KISSIMMEE      CLOUDY    85  66  53 E16       30.11S                  
WINTER HAVEN   PTSUNNY   89  65  44 E20G29    30.10F                  
LAKELAND       MOSUNNY   88  66  48 E17G25    30.09F                  
BARTOW         PTSUNNY   82  68  61 E18       30.08F                  
SEBRING        CLOUDY    76  73  88 E10       30.09R                  
OKEECHOBEE     CLOUDY    79  72  78 NE10G17   30.06F                  

$$
FLZ041-047-054-059-064-141-147-202000-
EAST CENTRAL FLORIDA
  
CITY           SKY/WX    TMP DP  RH WIND       PRES   REMARKS
ORMOND BEACH   PTSUNNY   84  68  58 E14       30.15F                  
DAYTONA BEACH  PTSUNNY   82  70  66 E13G23    30.14F                  
DELAND         CLOUDY    77  70  78 E10       30.14F                  
NEW SMYRNA BEA PTSUNNY   82  68  61 E18       30.15F                  
JFK SPACE CTR  MOSUNNY   85  48  27 E16G24    30.12S                  
TITUSVILLE     PTSUNNY   88  66  48 E17       30.13S                  
CAPE CANAVERAL FAIR      85  70  59 E16G23    30.11S                  
PATRICK AFB    FAIR      85  69  58 E22G28    30.10F                  
MELBOURNE      PTSUNNY   86  67  52 E21G28    30.09F                  
VERO BEACH     PTSUNNY   86  67  52 NE20G29   30.08F                  
FT PIERCE      CLOUDY    82  67  60 E18G28    30.07F                  
STUART         PTSUNNY   81  70  69 E20G29    30.08S                  

STATION/POSITION SKY/WX   TEMP    WIND        PRES    WAVE   SWELL
                          AIR SEA DIR/SP/G            HT/PER HT/PER
                          (F)     (DEG/KT/KT) (MB)    (FT/S) (FT/S)
28.5N   80.2W              81 83   80/ 21/ 27 1020.1F  10/13   8/13
28.9N   78.5W              80 81   80/ 19/ 23 1020.7F  12/14  11/14
TRIDENT PIER               83 82   60/ 15/ 22 1021.4
28.4N   80.5W                 82                N/A     5/13   3/13
27.5N   80.2W                 82                N/A     9/13   5/13

$$
FLZ050-056-061-142-242-148-248-149-249-151-251-155-255-
160-260-202000-
WEST CENTRAL FLORIDA
  
CITY           SKY/WX    TMP DP  RH WIND       PRES   REMARKS
CRYSTAL RIVER  CLOUDY    86  64  48 E14       30.10F                  
INVERNESS      CLOUDY    81  72  74 E9G18     30.12F                  
BROOKSVILLE    PTSUNNY   85  65  51 NE18G24   30.10F                  
CLEARWATER AIR FAIR      86  68  54 E15G23    30.06F                  
ST PETE CLEARW FAIR      88  68  51 E14G24    30.06F                  
TAMPA INTL     PTSUNNY   87  67  51 NE14G21   30.08F                  
TAMPA EXEC     CLOUDY    86  72  62 NE10G18   30.08F                  
PLANT CITY     FAIR      88  70  55 E15G25    30.10F                  
MACDILL AFB    PTSUNNY   87  67  51 E16       30.06F                  
PETER O KNIGHT PTSUNNY   90  68  48 E20G28    30.07F                  
ST PETERSBURG  PTSUNNY   85  70  60 E25       30.06F                  
SARASOTA       PTSUNNY   83  72  69 E12G20    30.04F                  
VENICE         FAIR      84  72  65 NE24G33   30.04F                  

STATION/POSITION SKY/WX   TEMP    WIND        PRES    WAVE   SWELL
                          AIR SEA DIR/SP/G            HT/PER HT/PER
                          (F)     (DEG/KT/KT) (MB)    (FT/S) (FT/S)
27.3N   84.2W                 85                N/A     6/ 6
CLEARWATER BEACH           84 85   70/ 14/ 19 1018.7F
MIDDLE TAMPA BAY           83      90/ 21/ 25 1018.4S
VENICE                     82 85   60/ 15/ 22 1017.2F

$$
FLZ066-069-070-075>078-162-262-165-265-202000-
SOUTHWEST FLORIDA AND KEYS
  
CITY           SKY/WX    TMP DP  RH WIND       PRES   REMARKS
PUNTA GORDA    FAIR      84  74  71 NE23G32   30.05F                  
FT MYERS       PTSUNNY   82  74  76 E7        30.00F                  
SOUTHWEST INTL PTSUNNY   81  73  76 E16G23    30.01F                  
NAPLES         FAIR      87  72  60 E13G21    29.99F                  
MARCO ISLAND   FAIR      88  71  57 E15G26    29.99F                  
IMMOKALEE      PTSUNNY   86  72  62 E22       29.99S                  
MARATHON       FAIR      89  73  59 E15G26    29.94F HX  97           
KEY WEST NAS   FAIR      90  74  59 E21       29.94F HX  99           
KEY WEST INTL  FAIR      88  73  61 E18G29    29.95F HX  95           

STATION/POSITION SKY/WX   TEMP    WIND        PRES    WAVE   SWELL
                          AIR SEA DIR/SP/G            HT/PER HT/PER
                          (F)     (DEG/KT/KT) (MB)    (FT/S) (FT/S)
NAPLES                     84 84   60/ 10/ 14 1015.8
26.0N   85.6W              83 86   80/ 19/ 23 1016.2F  10/ 8
DRY TORTUGAS               84      80/ 19/ 21 1014.4F
SAND KEY                   84      80/ 23/ 27 1012.5F
SOMBRERO KEY               83      80/ 19/ 27 1014.1F
LONG KEY                   84                 1013.1F

$$
FLZ067-068-071>074-168-172>174-202000-
SOUTHEAST FLORIDA 
  
CITY           SKY/WX    TMP DP  RH WIND       PRES   REMARKS
W PALM BEACH   PTSUNNY   85  70  60 E23G35    30.04F                  
BOCA RATON     MOSUNNY   88  70  55 E23G30    30.02F                  
FT LAUDER-EXEC FAIR      85  71  63 E23G33    30.00F                  
FT LAUDERDALE  PTSUNNY   87  71  58 E24G33    29.99F                  
POMPANO BEACH  PTSUNNY   87  70  56 E18G30    30.01F                  
PEMBROKE PINES FAIR      88  70  55 E23G37    30.01F                  
OPA LOCKA      FAIR      86  73  65 E26G36    30.00F                  
MIAMI          PTSUNNY   84  71  65 NE21G29   29.99F                  
WEST KENDALL   RAIN      86  74  67 E26G33    29.98S                  
HOMESTEAD      FAIR      86  74  67 E23G30    29.97F HX  95           

STATION/POSITION SKY/WX   TEMP    WIND        PRES    WAVE   SWELL
                          AIR SEA DIR/SP/G            HT/PER HT/PER
                          (F)     (DEG/KT/KT) (MB)    (FT/S) (FT/S)
PORT EVERGLADES            82      60/ 22/ 28 1016.3
VIRGINIA KEY               83 85   50/ 19/ 25 1015.3
LAKE WORTH                 82 82   60/ 23/ 25 1018.4
FOWEY ROCKS                82 84